Weather Roundup
Issued by NWS Springfield, MO

Home | Current Version | Previous Version | Text Only | Print | Product List | Glossary On
Versions: 1 2 3 4 5 6 7 8 9 10 11 12 13 14 15 16 17 18 19 20 21 22 23 24 25 26 27 28 29 30 31 32 33 34 35 36 37 38 39 40 41 42 43 44 45 46 47 48 49 50
000
NZUS99 KSGF 050210
HRRSGF

HOURLY WEATHER
NATIONAL WEATHER SERVICE SPRINGFIELD MO
900 PM CDT TUE AUG 04 2015

......SGF CWA......

CITY           SKY/WX    TMP DP  RH WIND       PRES   REMARKS
SPRINGFIELD    LGT RAIN  75  70  84 NE14      30.00S
JOPLIN         RAIN      77  71  82 E5        30.00R
WEST PLAINS    CLOUDY    77  65  66 N7        30.02R
ROLLA          CLOUDY    73  59  61 VRB3      29.96F
OSAGE BEACH    CLOUDY    72  66  83 NE6       30.01F
BRANSON        MOCLDY    72  68  88 CALM      30.01S

......SURROUNDING SGF CWA......

CITY           SKY/WX    TMP DP  RH WIND       PRES   REMARKS
CHANUTE        LGT RAIN  72  69  90 E7        29.97S
PARSONS        LGT RAIN  75  72  90 CALM      29.98R
COFFEYVILLE    CLOUDY    75  71  87 E5        29.95R
EMPORIA        MOCLDY    73  66  78 SE12      29.96R
GROVE OK       CLOUDY    77  77 100 E6        29.96F
ROGERS AR      CLOUDY    77  69  76 E6        30.00S
SILOAM SPRINGS CLOUDY    77  66  69 E5        29.97S
HARRISON AR    CLOUDY    77  71  82 E6        30.01S
NEAR YELLVILLE CLOUDY    75  70  83 N10       29.99R THUNDER

......KANSAS AND MISSOURI......

CITY           SKY/WX    TMP DP  RH WIND       PRES   REMARKS
KANSAS CTY INT CLOUDY    72  70  93 E10       29.94F
DOWNTOWN KC    CLOUDY    73  70  90 E8        29.93F
COLUMBIA       CLOUDY    76  73  91 S7        29.99R
SEDALIA        RAIN      70  67  90 NE3       30.01S FOG
ST JOSEPH      CLOUDY    71  68  90 SE5       29.95S
ST LOUIS       CLOUDY    82  70  66 E5        29.98R
SPIRIT OF STL  CLOUDY    79  74  84 CALM      29.96R
KIRKSVILLE     RAIN      72  68  87 NE5       30.02R
WICHITA        CLOUDY    79  70  74 SE7       29.96R
TOPEKA         CLOUDY    72  70  93 SE5       29.95S
OLATHE         CLOUDY    70  69  97 SE6       29.95F FOG

......TENNESSEE......

CITY           SKY/WX    TMP DP  RH WIND       PRES   REMARKS
MEMPHIS        CLOUDY    90  68  48 E7        29.97R HX  94
NASHVILLE      MOCLDY    87  67  51 CALM      30.01R HX  90

......ARKANSAS.......

CITY           SKY/WX    TMP DP  RH WIND       PRES   REMARKS
FAYETTEVILLE   CLOUDY    78  74  87 CALM      29.98S
FT SMITH       PTCLDY    83  71  67 E3        29.93R
LITTLE ROCK    MOCLDY    85  69  58 N3        29.94R

......OKLAHOMA.......

CITY           SKY/WX    TMP DP  RH WIND       PRES   REMARKS
TULSA          PTCLDY    80  72  76 SE7       29.91S
PONCA CITY     CLEAR     79  71  76 SE9       29.92R
MCALESTER      MOCLDY    81  71  71 E5        29.93R
OKLAHOMA CITY  PTCLDY    79  75  87 SE7       29.92R

......IOWA............

CITY           SKY/WX    TMP DP  RH WIND       PRES   REMARKS
DES MOINES     CLOUDY    75  62  64 SE7       30.00R
QUAD CITIES    MOCLDY    72  63  73 CALM      30.01R

......ILLINOIS........

CITY           SKY/WX    TMP DP  RH WIND       PRES   REMARKS
QUINCY         CLOUDY    70  66  87 NE7       30.00R
CHICAGO        MOCLDY    74  53  48 N3        30.01R



USA.gov is the U.S. government's official web portal to all federal, state and local government web resources and services.